Location: Rehoboth Beach
(38.7438°N, 75.1341°W)
Time: 20:22:20
(UTC-04:00)

Cosmos 1452 Rocket - Visible Passes

Search period start: 29 May 2015 00:00
Search period end: 08 June 2015 00:00
Orbit: 769 x 775 km, 74.1° (Epoch: 28 May)

Date Brightness Start Highest point End Pass type
(mag) Time Alt. Az. Time Alt. Az. Time Alt. Az.
29 May 6.2 04:05:58 10° ESE 04:08:10 13° E 04:10:40 10° ENE visible
31 May 4.7 04:33:10 10° S 04:38:04 42° ESE 04:43:01 10° NNE visible
01 Jun 5.5 03:58:11 10° SSE 04:02:19 24° E 04:06:33 10° NE visible
02 Jun 6.0 03:24:05 10° SE 03:26:36 14° E 03:29:25 10° ENE visible
02 Jun 3.7 05:03:03 10° SSW 05:08:15 63° WNW 05:13:29 10° NNE visible
03 Jun 3.6 04:27:06 10° SSW 04:32:20 78° ESE 04:37:37 10° NNE visible
04 Jun 4.4 03:52:08 13° S 03:56:31 45° ESE 04:01:31 10° NNE visible
05 Jun 5.2 03:17:14 13° SSE 03:20:44 26° E 03:25:06 10° NE visible
05 Jun 4.4 04:57:57 10° SW 05:02:46 35° WNW 05:07:32 10° N visible
06 Jun 5.8 02:42:17 10° SE 02:45:01 15° E 02:48:06 10° ENE visible
06 Jun 3.7 04:22:39 16° SW 04:26:43 58° WNW 04:31:55 10° N visible
07 Jun 3.5 03:47:39 25° SSW 03:50:47 83° ESE 03:56:04 10° NNE visible
